Location: Piacenza
(44.1464°N, 88.7073°W)
Time: 03:17:14
(UTC+00:00)

Envisat - Visible Passes

Search period start: 24 May 2022 00:00
Search period end: 03 June 2022 00:00
Orbit: 764 x 765 km, 98.2° (Epoch: 22 May)

Date Brightness Start Highest point End Pass type
(mag) Time Alt. Az. Time Alt. Az. Time Alt. Az.
24 May 5.5 09:27:03 10° NE 09:30:40 19° E 09:34:15 10° SE visible
27 May 5.7 09:15:52 10° NE 09:18:47 15° E 09:21:40 10° SE visible
29 May 5.2 09:40:00 10° NE 09:44:13 26° E 09:48:24 10° SSE visible
30 May 5.9 09:05:08 10° ENE 09:06:51 12° E 09:08:36 10° ESE visible
01 Jun 5.5 09:28:36 10° NE 09:32:21 20° E 09:36:04 10° SE visible
